Time,TemperatureF,DewpointF,PressureIn,WindDirection,WindDirectionDegrees,WindSpeedMPH,WindSpeedGustMPH,Humidity,HourlyPrecipIn,Conditions,Clouds,dailyrainin,SoftwareType,DateUTC
2013-03-18 00:00:00,34.9,18.6,30.03,NNE,29,0.0,0.0,51,0.00,,OVC028,0.04,VWS V12.08,2013-03-18 04:00:00,
2013-03-18 00:05:00,34.9,18.6,30.03,NE,49,0.0,0.0,51,0.00,,OVC028,0.00,VWS V12.08,2013-03-18 04:05:00,
2013-03-18 00:10:00,34.9,19.1,30.03,NE,41,0.0,0.0,52,0.00,,OVC028,0.00,VWS V12.08,2013-03-18 04:10:00,
2013-03-18 00:15:00,34.9,19.5,30.03,NE,47,0.0,0.0,53,0.00,,OVC028,0.00,VWS V12.08,2013-03-18 04:15:00,
2013-03-18 00:20:00,34.9,19.1,30.03,NNE,22,0.0,0.0,52,0.00,,OVC028,0.00,VWS V12.08,2013-03-18 04:20:00,
2013-03-18 00:25:00,34.9,19.1,30.03,NNE,31,0.0,0.0,52,0.00,,OVC028,0.00,VWS V12.08,2013-03-18 04:25:00,
2013-03-18 00:30:00,34.9,19.1,30.03,NNE,20,0.0,0.0,52,0.00,,OVC028,0.00,VWS V12.08,2013-03-18 04:30:00,
2013-03-18 00:35:00,34.9,19.5,30.03,NE,34,0.0,0.0,53,0.00,,OVC028,0.00,VWS V12.08,2013-03-18 04:35:00,
2013-03-18 00:40:00,34.7,18.9,30.03,NE,47,0.0,0.0,52,0.00,,OVC028,0.00,VWS V12.08,2013-03-18 04:40:00,
2013-03-18 00:45:00,34.9,20.0,30.03,NNE,17,0.0,0.0,54,0.00,,OVC028,0.00,VWS V12.08,2013-03-18 04:45:00,
2013-03-18 00:50:00,34.9,20.0,30.03,NE,52,0.0,0.0,54,0.00,,OVC028,0.00,VWS V12.08,2013-03-18 04:50:00,
2013-03-18 00:55:00,34.9,20.0,30.03,NNE,20,0.0,0.0,54,0.00,,OVC028,0.00,VWS V12.08,2013-03-18 04:55:00,
2013-03-18 01:00:00,34.9,21.7,30.03,NNE,33,0.0,0.0,58,0.00,,OVC028,0.00,VWS V12.08,2013-03-18 05:00:00,
2013-03-18 01:05:00,34.9,20.8,30.03,NE,38,0.0,0.0,56,0.00,,OVC028,0.00,VWS V12.08,2013-03-18 05:05:00,
2013-03-18 01:10:00,35.1,21.8,30.03,NNE,29,0.0,0.0,58,0.00,,OVC028,0.00,VWS V12.08,2013-03-18 05:10:00,
2013-03-18 01:15:00,35.3,22.0,30.03,NE,48,0.0,0.0,58,0.00,,OVC028,0.00,VWS V12.08,2013-03-18 05:15:00,
2013-03-18 01:20:00,35.5,22.6,30.03,NE,34,0.0,0.0,59,0.00,,OVC028,0.00,VWS V12.08,2013-03-18 05:20:00,
2013-03-18 01:25:00,35.5,23.8,30.00,NE,53,0.0,0.0,62,0.00,,OVC028,0.00,VWS V12.08,2013-03-18 05:25:00,
2013-03-18 01:30:00,35.3,24.0,30.00,North,0,0.0,0.0,63,0.00,,OVC028,0.00,VWS V12.08,2013-03-18 05:30:00,
2013-03-18 01:35:00,35.1,24.5,30.00,NNE,30,0.0,0.0,65,0.00,,OVC028,0.00,VWS V12.08,2013-03-18 05:35:00,
2013-03-18 01:40:00,35.3,25.1,30.00,North,11,0.0,0.0,66,0.00,,OVC028,0.00,VWS V12.08,2013-03-18 05:40:00,
2013-03-18 01:45:00,35.3,27.2,30.00,North,8,0.0,0.0,72,0.00,,OVC028,0.00,VWS V12.08,2013-03-18 05:45:00,
2013-03-18 01:50:00,35.1,28.0,30.00,NNE,21,0.0,0.0,75,0.00,,OVC028,0.00,VWS V12.08,2013-03-18 05:50:00,
2013-03-18 01:55:00,35.1,27.7,30.00,NE,40,0.0,0.0,74,0.00,,OVC028,0.00,VWS V12.08,2013-03-18 05:55:00,
2013-03-18 02:00:00,35.3,29.1,30.00,NNE,18,0.0,0.0,78,0.00,,OVC028,0.00,VWS V12.08,2013-03-18 06:00:00,
2013-03-18 02:05:00,35.1,29.3,30.00,NNE,19,5.8,5.8,79,0.00,,OVC028,0.00,VWS V12.08,2013-03-18 06:05:00,
2013-03-18 02:10:00,35.1,29.3,30.00,NNE,24,4.9,5.8,79,0.00,,OVC028,0.00,VWS V12.08,2013-03-18 06:10:00,
2013-03-18 02:15:00,35.1,29.9,30.00,NE,47,6.3,8.7,81,0.00,,OVC028,0.00,VWS V12.08,2013-03-18 06:15:00,
2013-03-18 02:20:00,35.1,29.6,30.00,NE,55,3.1,4.0,80,0.00,,OVC028,0.00,VWS V12.08,2013-03-18 06:20:00,
2013-03-18 02:25:00,35.1,30.2,30.00,NNE,14,4.9,7.6,82,0.00,,OVC028,0.00,VWS V12.08,2013-03-18 06:25:00,
2013-03-18 02:30:00,35.1,30.5,30.00,NNE,29,4.0,5.4,83,0.00,,OVC028,0.00,VWS V12.08,2013-03-18 06:30:00,
2013-03-18 02:35:00,35.1,30.8,30.00,North,0,5.4,7.6,84,0.00,,OVC028,0.00,VWS V12.08,2013-03-18 06:35:00,
2013-03-18 02:40:00,35.1,30.5,30.00,East,96,2.7,6.3,83,0.00,,OVC028,0.00,VWS V12.08,2013-03-18 06:40:00,
2013-03-18 02:45:00,35.3,30.9,30.00,NNE,22,4.0,6.3,84,0.00,,OVC028,0.00,VWS V12.08,2013-03-18 06:45:00,
2013-03-18 02:50:00,35.1,30.8,30.00,NE,37,7.6,7.6,84,0.00,,OVC028,0.00,VWS V12.08,2013-03-18 06:50:00,
2013-03-18 02:55:00,35.3,30.9,30.00,North,2,0.0,0.0,84,0.04,,OVC028,0.04,VWS V12.08,2013-03-18 06:55:00,
2013-03-18 03:00:00,35.1,30.8,30.00,NNE,32,0.0,0.0,84,0.04,,OVC028,0.04,VWS V12.08,2013-03-18 07:00:00,
2013-03-18 03:05:00,35.1,30.8,30.00,North,11,0.0,0.0,84,0.04,,OVC028,0.04,VWS V12.08,2013-03-18 07:05:00,
2013-03-18 03:10:00,35.3,30.6,29.97,NNE,25,0.0,0.0,83,0.04,,OVC028,0.04,VWS V12.08,2013-03-18 07:10:00,
2013-03-18 03:15:00,35.3,30.9,29.97,NE,51,0.0,0.0,84,0.04,,OVC028,0.04,VWS V12.08,2013-03-18 07:15:00,
2013-03-18 03:20:00,35.1,30.8,29.97,ENE,61,0.0,0.0,84,0.04,,OVC028,0.04,VWS V12.08,2013-03-18 07:20:00,
2013-03-18 03:25:00,35.1,30.8,29.97,East,100,0.0,0.0,84,0.04,,OVC028,0.04,VWS V12.08,2013-03-18 07:25:00,
2013-03-18 03:30:00,34.9,30.6,29.97,NNE,26,0.0,0.0,84,0.04,,OVC028,0.04,VWS V12.08,2013-03-18 07:30:00,
2013-03-18 03:35:00,35.1,30.5,29.97,NE,42,0.0,0.0,83,0.04,,OVC028,0.04,VWS V12.08,2013-03-18 07:35:00,
2013-03-18 03:40:00,34.9,30.6,29.97,East,101,0.0,0.0,84,0.04,,OVC028,0.04,VWS V12.08,2013-03-18 07:40:00,
2013-03-18 03:45:00,34.9,30.6,29.97,ENE,58,0.0,0.0,84,0.04,,OVC028,0.12,VWS V12.08,2013-03-18 07:45:00,
2013-03-18 03:50:00,35.1,30.8,29.97,NNE,22,0.0,0.0,84,0.12,,OVC028,0.12,VWS V12.08,2013-03-18 07:50:00,
2013-03-18 03:55:00,34.9,30.9,29.97,North,11,0.0,0.0,85,0.12,,OVC028,0.12,VWS V12.08,2013-03-18 07:55:00,
2013-03-18 04:00:00,34.9,30.9,29.97,NE,47,0.0,0.0,85,0.12,,OVC028,0.12,VWS V12.08,2013-03-18 08:00:00,
2013-03-18 04:05:00,34.9,31.2,29.97,North,11,0.0,0.0,86,0.08,,OVC028,0.12,VWS V12.08,2013-03-18 08:05:00,
2013-03-18 04:10:00,34.9,31.2,29.97,ENE,58,0.0,0.0,86,0.08,,OVC028,0.12,VWS V12.08,2013-03-18 08:10:00,
2013-03-18 04:15:00,35.1,31.3,29.97,NNE,32,0.0,0.0,86,0.12,,OVC028,0.16,VWS V12.08,2013-03-18 08:15:00,
2013-03-18 04:20:00,35.1,31.6,29.97,NE,43,0.0,0.0,87,0.12,,OVC028,0.16,VWS V12.08,2013-03-18 08:20:00,
2013-03-18 04:25:00,34.9,31.7,29.97,NE,56,0.0,0.0,88,0.12,,OVC028,0.16,VWS V12.08,2013-03-18 08:25:00,
2013-03-18 04:30:00,34.9,31.7,29.97,NE,48,0.0,0.0,88,0.12,,OVC028,0.16,VWS V12.08,2013-03-18 08:30:00,
2013-03-18 04:35:00,34.9,32.0,29.97,ENE,64,0.0,0.0,89,0.16,,OVC028,0.20,VWS V12.08,2013-03-18 08:35:00,
2013-03-18 04:40:00,34.9,32.0,29.97,NE,36,0.0,0.0,89,0.16,,OVC028,0.20,VWS V12.08,2013-03-18 08:40:00,
2013-03-18 04:45:00,34.7,31.8,29.97,NNE,27,0.0,0.0,89,0.16,,OVC028,0.20,VWS V12.08,2013-03-18 08:45:00,
2013-03-18 04:50:00,34.9,32.0,29.97,NNE,19,0.0,0.0,89,0.08,,OVC028,0.20,VWS V12.08,2013-03-18 08:50:00,
2013-03-18 04:55:00,34.9,32.0,29.97,NNE,29,0.0,0.0,89,0.08,,OVC028,0.20,VWS V12.08,2013-03-18 08:55:00,
2013-03-18 05:00:00,34.9,32.3,29.97,NE,41,0.0,0.0,90,0.08,,OVC028,0.20,VWS V12.08,2013-03-18 09:00:00,
2013-03-18 05:05:00,34.9,32.0,29.97,North,357,0.0,0.0,89,0.08,,OVC028,0.20,VWS V12.08,2013-03-18 09:05:00,
2013-03-18 05:10:00,34.9,32.0,29.97,NE,41,0.0,0.0,89,0.08,,OVC028,0.20,VWS V12.08,2013-03-18 09:10:00,
2013-03-18 05:15:00,34.9,32.0,29.97,NNE,23,0.0,0.0,89,0.08,,OVC028,0.20,VWS V12.08,2013-03-18 09:15:00,
2013-03-18 05:20:00,35.1,32.2,29.97,NE,39,0.0,0.0,89,0.04,,OVC028,0.20,VWS V12.08,2013-03-18 09:20:00,
2013-03-18 05:25:00,35.1,32.2,29.97,NNE,24,0.0,0.0,89,0.04,,OVC028,0.20,VWS V12.08,2013-03-18 09:25:00,
2013-03-18 05:30:00,35.1,32.5,29.97,North,357,0.0,0.0,90,0.04,,OVC028,0.20,VWS V12.08,2013-03-18 09:30:00,
2013-03-18 05:35:00,34.9,32.3,29.97,NNE,30,0.0,0.0,90,0.04,,OVC028,0.20,VWS V12.08,2013-03-18 09:35:00,
2013-03-18 05:40:00,34.9,32.0,29.94,NE,37,0.0,0.0,89,0.04,,OVC028,0.20,VWS V12.08,2013-03-18 09:40:00,
2013-03-18 05:45:00,34.9,32.0,29.94,NE,43,0.0,0.0,89,0.04,,OVC028,0.20,VWS V12.08,2013-03-18 09:45:00,
2013-03-18 05:50:00,34.9,32.3,29.94,NNE,20,0.0,0.0,90,0.00,,OVC028,0.20,VWS V12.08,2013-03-18 09:50:00,
2013-03-18 05:55:00,34.9,32.3,29.94,NE,50,0.0,0.0,90,0.00,,OVC028,0.20,VWS V12.08,2013-03-18 09:55:00,
2013-03-18 06:00:00,34.9,32.0,29.94,NE,49,0.0,0.0,89,0.00,,OVC028,0.20,VWS V12.08,2013-03-18 10:00:00,
2013-03-18 06:05:00,34.9,31.7,29.94,NNE,25,0.0,0.0,88,0.00,,OVC028,0.20,VWS V12.08,2013-03-18 10:05:00,
2013-03-18 06:10:00,34.9,31.7,29.94,NE,35,0.0,0.0,88,0.00,,OVC028,0.20,VWS V12.08,2013-03-18 10:10:00,
2013-03-18 06:15:00,34.9,31.7,29.94,ENE,58,0.0,0.0,88,0.04,,OVC028,0.24,VWS V12.08,2013-03-18 10:15:00,
2013-03-18 06:20:00,34.9,32.0,29.94,North,2,0.0,0.0,89,0.04,,OVC028,0.24,VWS V12.08,2013-03-18 10:20:00,
2013-03-18 06:25:00,34.9,32.0,29.94,NE,39,0.0,0.0,89,0.04,,OVC028,0.24,VWS V12.08,2013-03-18 10:25:00,
2013-03-18 06:30:00,34.6,31.7,29.94,NE,35,0.0,0.0,89,0.04,,OVC028,0.24,VWS V12.08,2013-03-18 10:30:00,
2013-03-18 06:35:00,34.6,31.4,29.94,NE,35,0.0,0.0,88,0.04,,OVC028,0.24,VWS V12.08,2013-03-18 10:35:00,
2013-03-18 06:40:00,34.7,31.3,29.94,ENE,68,0.0,0.0,87,0.04,,OVC028,0.24,VWS V12.08,2013-03-18 10:40:00,
2013-03-18 06:45:00,34.6,31.1,29.94,NNE,25,0.0,0.0,87,0.04,,OVC028,0.24,VWS V12.08,2013-03-18 10:45:00,
2013-03-18 06:50:00,34.7,31.3,29.94,NNE,12,0.0,0.0,87,0.04,,OVC028,0.24,VWS V12.08,2013-03-18 10:50:00,
2013-03-18 06:55:00,34.7,31.0,29.91,NNE,22,0.0,0.0,86,0.04,,OVC028,0.24,VWS V12.08,2013-03-18 10:55:00,
2013-03-18 07:00:00,34.9,31.2,29.91,NNE,23,0.0,0.0,86,0.04,,OVC028,0.24,VWS V12.08,2013-03-18 11:00:00,
2013-03-18 07:05:00,34.6,29.6,29.91,ESE,104,0.0,0.0,82,0.04,,OVC028,0.24,VWS V12.08,2013-03-18 11:05:00,
2013-03-18 07:10:00,34.6,29.6,29.91,NNE,25,0.0,0.0,82,0.04,,OVC028,0.24,VWS V12.08,2013-03-18 11:10:00,
2013-03-18 07:15:00,34.6,29.3,29.91,NE,45,0.0,0.0,81,0.04,,OVC028,0.24,VWS V12.08,2013-03-18 11:15:00,
2013-03-18 07:20:00,34.6,28.4,29.91,NNE,14,0.0,0.0,78,0.00,,OVC028,0.24,VWS V12.08,2013-03-18 11:20:00,
2013-03-18 07:25:00,34.7,28.3,29.91,NE,53,0.0,0.0,77,0.00,,OVC028,0.24,VWS V12.08,2013-03-18 11:25:00,
2013-03-18 07:30:00,34.7,27.3,29.91,NNE,22,0.0,0.0,74,0.00,,OVC028,0.24,VWS V12.08,2013-03-18 11:30:00,
2013-03-18 07:35:00,34.9,27.2,29.91,NE,51,0.0,0.0,73,0.00,,OVC028,0.24,VWS V12.08,2013-03-18 11:35:00,
2013-03-18 07:40:00,34.9,27.2,29.91,NNE,23,0.0,0.0,73,0.00,,OVC028,0.24,VWS V12.08,2013-03-18 11:40:00,
2013-03-18 07:45:00,34.9,26.8,29.91,NNE,30,0.0,0.0,72,0.00,,OVC028,0.24,VWS V12.08,2013-03-18 11:45:00,
2013-03-18 07:50:00,35.1,27.0,29.91,NNE,12,0.0,0.0,72,0.00,,OVC028,0.24,VWS V12.08,2013-03-18 11:50:00,
2013-03-18 07:55:00,35.1,26.3,29.88,North,10,0.0,0.0,70,0.00,,OVC028,0.24,VWS V12.08,2013-03-18 11:55:00,
2013-03-18 08:00:00,35.3,26.1,29.88,North,11,0.0,0.0,69,0.00,,OVC028,0.24,VWS V12.08,2013-03-18 12:00:00,
2013-03-18 08:05:00,35.5,26.7,29.88,NE,37,0.0,0.0,70,0.00,,OVC028,0.24,VWS V12.08,2013-03-18 12:05:00,
2013-03-18 08:10:00,35.8,26.7,29.88,North,7,0.0,0.0,69,0.00,,OVC028,0.24,VWS V12.08,2013-03-18 12:10:00,
2013-03-18 08:15:00,35.8,26.0,29.88,NNE,25,0.0,0.0,67,0.00,,OVC028,0.24,VWS V12.08,2013-03-18 12:15:00,
2013-03-18 08:20:00,36.2,26.3,29.88,NE,42,0.0,0.0,67,0.00,,OVC028,0.24,VWS V12.08,2013-03-18 12:20:00,
2013-03-18 08:25:00,36.4,26.5,29.88,ENE,62,0.0,0.0,67,0.00,,OVC028,0.24,VWS V12.08,2013-03-18 12:25:00,
2013-03-18 08:30:00,37.1,27.5,29.88,ENE,74,0.0,0.0,68,0.00,,OVC028,0.24,VWS V12.08,2013-03-18 12:30:00,
2013-03-18 08:35:00,37.8,27.1,29.88,ENE,64,0.0,0.0,65,0.00,,OVC028,0.24,VWS V12.08,2013-03-18 12:35:00,
2013-03-18 08:40:00,38.0,26.9,29.88,NNE,33,0.0,0.0,64,0.00,,OVC028,0.24,VWS V12.08,2013-03-18 12:40:00,
2013-03-18 08:45:00,38.2,27.5,29.88,ENE,57,0.0,0.0,65,0.00,,OVC028,0.24,VWS V12.08,2013-03-18 12:45:00,
2013-03-18 08:50:00,38.0,26.9,29.88,NE,36,0.0,0.0,64,0.00,,OVC028,0.24,VWS V12.08,2013-03-18 12:50:00,
2013-03-18 08:55:00,38.2,26.7,29.88,NNE,21,0.0,0.0,63,0.00,,OVC028,0.24,VWS V12.08,2013-03-18 12:55:00,
2013-03-18 09:00:00,38.7,27.2,29.88,North,3,6.3,6.3,63,0.00,,OVC028,0.24,VWS V12.08,2013-03-18 13:00:00,
2013-03-18 09:05:00,39.6,27.3,29.88,NE,39,7.6,8.1,61,0.00,,OVC028,0.24,VWS V12.08,2013-03-18 13:05:00,
2013-03-18 09:10:00,39.8,27.0,29.88,SE,130,4.9,6.3,60,0.00,,OVC028,0.24,VWS V12.08,2013-03-18 13:10:00,
2013-03-18 09:15:00,39.8,27.0,29.88,NE,41,5.4,5.4,60,0.00,,OVC028,0.24,VWS V12.08,2013-03-18 13:15:00,
2013-03-18 09:20:00,39.6,26.9,29.88,North,357,0.0,8.1,60,0.00,,OVC028,0.24,VWS V12.08,2013-03-18 13:20:00,
2013-03-18 09:25:00,39.4,26.7,29.85,NE,35,5.4,11.0,60,0.00,,OVC028,0.24,VWS V12.08,2013-03-18 13:25:00,
2013-03-18 09:30:00,39.4,27.1,29.85,ESE,115,14.5,14.5,61,0.00,,OVC028,0.24,VWS V12.08,2013-03-18 13:30:00,
2013-03-18 09:35:00,39.4,27.1,29.85,South,170,2.7,5.8,61,0.00,,OVC028,0.24,VWS V12.08,2013-03-18 13:35:00,
2013-03-18 09:40:00,39.4,27.1,29.85,SE,139,7.6,8.1,61,0.00,,OVC028,0.24,VWS V12.08,2013-03-18 13:40:00,
2013-03-18 09:45:00,39.6,27.3,29.85,NNE,22,2.7,7.6,61,0.00,,OVC028,0.24,VWS V12.08,2013-03-18 13:45:00,
2013-03-18 09:50:00,40.0,28.0,29.85,ESE,105,8.1,8.1,62,0.00,,OVC028,0.24,VWS V12.08,2013-03-18 13:50:00,
2013-03-18 09:55:00,40.0,27.2,29.85,NE,45,2.7,6.3,60,0.00,,OVC028,0.24,VWS V12.08,2013-03-18 13:55:00,
2013-03-18 10:00:00,40.1,27.4,29.85,NE,52,0.0,10.1,60,0.00,,OVC028,0.24,VWS V12.08,2013-03-18 14:00:00,
2013-03-18 10:05:00,40.3,27.1,29.85,NNE,33,0.0,0.0,59,0.00,,OVC028,0.24,VWS V12.08,2013-03-18 14:05:00,
2013-03-18 10:10:00,40.3,27.5,29.85,SSE,152,0.0,0.0,60,0.00,,OVC028,0.24,VWS V12.08,2013-03-18 14:10:00,
2013-03-18 10:15:00,40.5,26.9,29.85,ESE,121,0.0,0.0,58,0.00,,OVC028,0.24,VWS V12.08,2013-03-18 14:15:00,
2013-03-18 10:20:00,40.5,26.9,29.85,NNE,19,0.0,0.0,58,0.00,,OVC028,0.24,VWS V12.08,2013-03-18 14:20:00,
2013-03-18 10:25:00,40.5,26.9,29.85,NNE,23,0.0,0.0,58,0.00,,OVC028,0.24,VWS V12.08,2013-03-18 14:25:00,
2013-03-18 10:30:00,40.7,27.1,29.85,SE,141,0.0,0.0,58,0.00,,OVC028,0.24,VWS V12.08,2013-03-18 14:30:00,
2013-03-18 10:35:00,40.5,26.5,29.85,SSE,153,0.0,0.0,57,0.00,,OVC028,0.24,VWS V12.08,2013-03-18 14:35:00,
2013-03-18 10:40:00,40.5,26.9,29.85,ESE,111,0.0,0.0,58,0.00,,OVC028,0.24,VWS V12.08,2013-03-18 14:40:00,
2013-03-18 10:45:00,40.5,27.3,29.85,SSW,203,0.0,0.0,59,0.00,,OVC028,0.24,VWS V12.08,2013-03-18 14:45:00,
2013-03-18 10:50:00,40.1,27.8,29.85,NNE,22,0.0,0.0,61,0.00,,OVC028,0.24,VWS V12.08,2013-03-18 14:50:00,
2013-03-18 10:55:00,39.8,28.2,29.85,ESE,122,0.0,0.0,63,0.00,,OVC028,0.24,VWS V12.08,2013-03-18 14:55:00,
2013-03-18 11:00:00,39.6,29.2,29.85,WSW,239,0.0,0.0,66,0.00,,OVC028,0.24,VWS V12.08,2013-03-18 15:00:00,
2013-03-18 11:05:00,39.2,30.3,29.85,SSE,148,0.0,0.0,70,0.04,,OVC028,0.28,VWS V12.08,2013-03-18 15:05:00,
2013-03-18 11:10:00,38.9,30.6,29.85,East,96,0.0,0.0,72,0.08,,OVC028,0.31,VWS V12.08,2013-03-18 15:10:00,
2013-03-18 11:15:00,38.7,31.1,29.85,NNE,27,0.0,0.0,74,0.08,,OVC028,0.31,VWS V12.08,2013-03-18 15:15:00,
2013-03-18 11:20:00,38.5,31.6,29.85,SE,138,0.0,0.0,76,0.12,,OVC028,0.35,VWS V12.08,2013-03-18 15:20:00,
2013-03-18 11:25:00,38.3,32.4,29.82,SW,219,0.0,0.0,79,0.16,,OVC028,0.39,VWS V12.08,2013-03-18 15:25:00,
2013-03-18 11:30:00,38.3,32.7,29.82,NNE,22,0.0,0.0,80,0.16,,OVC028,0.39,VWS V12.08,2013-03-18 15:30:00,
2013-03-18 11:35:00,38.3,33.0,29.82,ESE,114,0.0,0.0,81,0.20,,OVC028,0.43,VWS V12.08,2013-03-18 15:35:00,
2013-03-18 11:40:00,38.3,33.6,29.82,SSE,152,0.0,0.0,83,0.24,,OVC028,0.47,VWS V12.08,2013-03-18 15:40:00,
2013-03-18 11:45:00,38.2,33.5,29.82,South,174,0.0,0.0,83,0.24,,OVC028,0.47,VWS V12.08,2013-03-18 15:45:00,
2013-03-18 11:50:00,38.2,33.8,29.82,SSE,151,0.0,0.0,84,0.28,,OVC028,0.51,VWS V12.08,2013-03-18 15:50:00,
2013-03-18 11:55:00,38.2,34.1,29.82,NW,311,0.0,0.0,85,0.31,,OVC028,0.55,VWS V12.08,2013-03-18 15:55:00,
2013-03-18 12:00:00,38.2,34.3,29.82,SSE,160,0.0,0.0,86,0.31,,OVC028,0.55,VWS V12.08,2013-03-18 16:00:00,
2013-03-18 12:05:00,38.2,34.6,29.82,SW,221,0.0,0.0,87,0.35,,OVC028,0.59,VWS V12.08,2013-03-18 16:05:00,
2013-03-18 12:10:00,38.2,34.6,29.82,ESE,104,0.0,0.0,87,0.35,,OVC028,0.59,VWS V12.08,2013-03-18 16:10:00,
2013-03-18 12:15:00,38.0,34.5,29.82,ESE,112,0.0,0.0,87,0.35,,OVC028,0.59,VWS V12.08,2013-03-18 16:15:00,
2013-03-18 12:20:00,38.0,34.5,29.82,SE,135,0.0,0.0,87,0.28,,OVC028,0.59,VWS V12.08,2013-03-18 16:20:00,
2013-03-18 12:25:00,38.0,34.5,29.82,NE,56,0.0,0.0,87,0.31,,OVC028,0.63,VWS V12.08,2013-03-18 16:25:00,
2013-03-18 12:30:00,38.0,34.8,29.82,SE,124,0.0,0.0,88,0.35,,OVC028,0.67,VWS V12.08,2013-03-18 16:30:00,
2013-03-18 12:35:00,38.0,34.8,29.82,SSW,194,0.0,0.0,88,0.28,,OVC028,0.67,VWS V12.08,2013-03-18 16:35:00,
2013-03-18 12:40:00,38.0,34.8,29.82,SSE,154,0.0,0.0,88,0.31,,OVC028,0.71,VWS V12.08,2013-03-18 16:40:00,
2013-03-18 12:45:00,38.0,35.0,29.82,ESE,121,0.0,0.0,89,0.31,,OVC028,0.71,VWS V12.08,2013-03-18 16:45:00,
2013-03-18 12:50:00,38.0,35.0,29.82,SSW,211,0.0,0.0,89,0.24,,OVC028,0.71,VWS V12.08,2013-03-18 16:50:00,
2013-03-18 12:55:00,38.3,35.7,29.79,NNE,17,0.0,0.0,90,0.28,,OVC028,0.75,VWS V12.08,2013-03-18 16:55:00,
2013-03-18 13:00:00,38.5,35.8,29.79,North,10,0.0,0.0,90,0.28,,OVC028,0.75,VWS V12.08,2013-03-18 17:00:00,
2013-03-18 13:05:00,38.9,36.2,29.79,SSW,203,0.0,0.0,90,0.20,,OVC028,0.75,VWS V12.08,2013-03-18 17:05:00,
2013-03-18 13:10:00,39.6,37.2,29.79,SSW,193,0.0,0.0,91,0.20,,OVC028,0.75,VWS V12.08,2013-03-18 17:10:00,
2013-03-18 13:15:00,39.8,37.4,29.79,West,267,0.0,0.0,91,0.20,,OVC028,0.75,VWS V12.08,2013-03-18 17:15:00,
2013-03-18 13:20:00,40.0,37.3,29.79,South,187,0.0,0.0,90,0.16,,OVC028,0.75,VWS V12.08,2013-03-18 17:20:00,
2013-03-18 13:25:00,40.1,37.2,29.82,SW,221,0.0,0.0,89,0.16,,OVC028,0.75,VWS V12.08,2013-03-18 17:25:00,
2013-03-18 13:30:00,40.0,36.7,29.82,WSW,249,0.0,0.0,88,0.16,,OVC028,0.75,VWS V12.08,2013-03-18 17:30:00,
2013-03-18 13:35:00,40.3,37.1,29.82,WSW,253,0.0,0.0,88,0.08,,OVC028,0.75,VWS V12.08,2013-03-18 17:35:00,
2013-03-18 13:40:00,40.5,36.9,29.82,SE,141,0.0,0.0,87,0.08,,OVC028,0.75,VWS V12.08,2013-03-18 17:40:00,
2013-03-18 13:45:00,40.5,36.9,29.82,SSW,195,0.0,0.0,87,0.08,,OVC028,0.75,VWS V12.08,2013-03-18 17:45:00,
2013-03-18 13:50:00,40.7,37.1,29.82,South,187,0.0,0.0,87,0.04,,OVC028,0.75,VWS V12.08,2013-03-18 17:50:00,
2013-03-18 13:55:00,41.0,37.5,29.82,South,191,0.0,0.0,87,0.04,,OVC028,0.75,VWS V12.08,2013-03-18 17:55:00,
2013-03-18 14:00:00,41.0,37.5,29.82,WNW,300,0.0,0.0,87,0.04,,OVC028,0.75,VWS V12.08,2013-03-18 18:00:00,
2013-03-18 14:05:00,41.2,37.4,29.82,West,268,0.0,0.0,86,0.00,,OVC028,0.75,VWS V12.08,2013-03-18 18:05:00,
2013-03-18 14:10:00,41.2,37.4,29.79,SSE,153,0.0,0.0,86,0.00,,OVC028,0.75,VWS V12.08,2013-03-18 18:10:00,
2013-03-18 14:15:00,41.4,37.2,29.79,SSE,166,0.0,0.0,85,0.00,,OVC028,0.75,VWS V12.08,2013-03-18 18:15:00,
2013-03-18 14:20:00,41.4,36.9,29.79,SSE,162,0.0,0.0,84,0.00,,OVC028,0.75,VWS V12.08,2013-03-18 18:20:00,
2013-03-18 14:25:00,41.2,36.2,29.79,SSE,162,0.0,0.0,82,0.00,,OVC028,0.75,VWS V12.08,2013-03-18 18:25:00,
2013-03-18 14:30:00,41.2,36.2,29.79,South,187,0.0,0.0,82,0.00,,OVC028,0.75,VWS V12.08,2013-03-18 18:30:00,
2013-03-18 14:35:00,41.4,36.6,29.79,South,171,0.0,0.0,83,0.00,,OVC028,0.75,VWS V12.08,2013-03-18 18:35:00,
2013-03-18 14:40:00,41.2,36.5,29.79,WSW,239,0.0,0.0,83,0.00,,OVC028,0.75,VWS V12.08,2013-03-18 18:40:00,
2013-03-18 14:45:00,41.6,36.8,29.79,SW,219,0.0,0.0,83,0.00,,OVC028,0.79,VWS V12.08,2013-03-18 18:45:00,
2013-03-18 14:50:00,41.6,37.1,29.79,SSE,160,0.0,0.0,84,0.04,,OVC028,0.79,VWS V12.08,2013-03-18 18:50:00,
2013-03-18 14:55:00,41.8,37.6,29.76,SSW,195,0.0,0.0,85,0.04,,OVC028,0.79,VWS V12.08,2013-03-18 18:55:00,
2013-03-18 15:00:00,41.9,38.1,29.76,SSW,203,0.0,0.0,86,0.04,,OVC028,0.79,VWS V12.08,2013-03-18 19:00:00,
2013-03-18 15:05:00,42.5,38.6,29.76,SE,137,0.0,0.0,86,0.04,,OVC028,0.79,VWS V12.08,2013-03-18 19:05:00,
2013-03-18 15:10:00,42.8,39.0,29.76,SW,226,0.0,0.0,86,0.04,,OVC028,0.79,VWS V12.08,2013-03-18 19:10:00,
2013-03-18 15:15:00,43.0,39.1,29.76,SSE,157,0.0,0.0,86,0.04,,OVC028,0.79,VWS V12.08,2013-03-18 19:15:00,
2013-03-18 15:20:00,43.4,39.5,29.76,SSW,210,0.0,0.0,86,0.04,,OVC028,0.79,VWS V12.08,2013-03-18 19:20:00,
2013-03-18 15:25:00,44.1,40.2,29.76,SSE,165,0.0,0.0,86,0.04,,OVC028,0.79,VWS V12.08,2013-03-18 19:25:00,
2013-03-18 15:30:00,44.1,39.9,29.76,SE,136,0.0,0.0,85,0.04,,OVC028,0.79,VWS V12.08,2013-03-18 19:30:00,
2013-03-18 15:35:00,44.5,39.9,29.76,SE,125,0.0,0.0,84,0.04,,OVC028,0.79,VWS V12.08,2013-03-18 19:35:00,
2013-03-18 15:40:00,44.3,39.5,29.73,SE,142,0.0,0.0,83,0.04,,OVC028,0.79,VWS V12.08,2013-03-18 19:40:00,
2013-03-18 15:45:00,44.1,38.7,29.73,South,185,0.0,0.0,81,0.04,,OVC028,0.79,VWS V12.08,2013-03-18 19:45:00,
2013-03-18 15:50:00,44.1,39.0,29.73,SSE,153,0.0,0.0,82,0.04,,OVC028,0.79,VWS V12.08,2013-03-18 19:50:00,
2013-03-18 15:55:00,44.1,39.0,29.73,SSE,167,0.0,0.0,82,0.04,,OVC028,0.79,VWS V12.08,2013-03-18 19:55:00,
2013-03-18 16:00:00,44.1,39.0,29.73,SSW,202,0.0,0.0,82,0.04,,OVC028,0.79,VWS V12.08,2013-03-18 20:00:00,
2013-03-18 16:05:00,44.1,39.3,29.73,SSE,154,0.0,0.0,83,0.00,,OVC028,0.79,VWS V12.08,2013-03-18 20:05:00,
2013-03-18 16:10:00,44.5,39.9,29.73,WSW,252,0.0,0.0,84,0.00,,OVC028,0.79,VWS V12.08,2013-03-18 20:10:00,
2013-03-18 16:15:00,44.6,40.1,29.73,SSE,160,0.0,0.0,84,0.00,,OVC028,0.79,VWS V12.08,2013-03-18 20:15:00,
2013-03-18 16:20:00,45.0,40.2,29.73,East,94,0.0,0.0,83,0.00,,OVC028,0.79,VWS V12.08,2013-03-18 20:20:00,
2013-03-18 16:25:00,45.7,41.2,29.70,South,187,0.0,0.0,84,0.00,,OVC028,0.79,VWS V12.08,2013-03-18 20:25:00,
2013-03-18 16:30:00,46.1,40.9,29.70,SE,144,0.0,0.0,82,0.00,,OVC028,0.79,VWS V12.08,2013-03-18 20:30:00,
2013-03-18 16:35:00,45.9,39.4,29.70,South,189,0.0,0.0,78,0.00,,OVC028,0.79,VWS V12.08,2013-03-18 20:35:00,
2013-03-18 16:40:00,46.1,39.6,29.70,South,173,0.0,0.0,78,0.00,,OVC028,0.79,VWS V12.08,2013-03-18 20:40:00,
2013-03-18 16:45:00,46.3,39.1,29.70,SE,136,0.0,0.0,76,0.00,,OVC028,0.79,VWS V12.08,2013-03-18 20:45:00,
2013-03-18 16:50:00,46.6,38.8,29.70,SE,144,0.0,0.0,74,0.00,,OVC028,0.79,VWS V12.08,2013-03-18 20:50:00,
2013-03-18 16:55:00,47.0,38.1,29.67,SSW,198,0.0,0.0,71,0.00,,OVC028,0.79,VWS V12.08,2013-03-18 20:55:00,
2013-03-18 17:00:00,47.0,38.1,29.67,ESE,106,0.0,0.0,71,0.00,,OVC028,0.79,VWS V12.08,2013-03-18 21:00:00,
2013-03-18 17:05:00,47.2,37.5,29.67,SSW,209,0.0,0.0,69,0.00,,OVC028,0.79,VWS V12.08,2013-03-18 21:05:00,
2013-03-18 17:10:00,47.3,37.7,29.67,ENE,70,3.6,3.6,69,0.00,,OVC028,0.79,VWS V12.08,2013-03-18 21:10:00,
2013-03-18 17:15:00,47.3,37.0,29.67,SSE,151,7.6,8.7,67,0.00,,OVC028,0.79,VWS V12.08,2013-03-18 21:15:00,
2013-03-18 17:20:00,47.5,37.1,29.67,SW,228,3.6,6.3,67,0.00,,OVC028,0.79,VWS V12.08,2013-03-18 21:20:00,
2013-03-18 17:25:00,47.7,36.9,29.67,SSE,168,2.2,8.1,66,0.00,,OVC028,0.79,VWS V12.08,2013-03-18 21:25:00,
2013-03-18 17:30:00,47.9,37.8,29.67,SSW,202,4.0,4.0,68,0.00,,OVC028,0.79,VWS V12.08,2013-03-18 21:30:00,
2013-03-18 17:35:00,48.2,37.8,29.67,SW,218,4.9,5.4,67,0.00,,OVC028,0.79,VWS V12.08,2013-03-18 21:35:00,
2013-03-18 17:40:00,48.1,37.3,29.70,SW,234,0.0,4.0,66,0.00,,OVC028,0.79,VWS V12.08,2013-03-18 21:40:00,
2013-03-18 17:45:00,48.1,37.3,29.70,SE,140,3.6,6.3,66,0.00,,OVC028,0.79,VWS V12.08,2013-03-18 21:45:00,
2013-03-18 17:50:00,48.1,36.9,29.70,SSE,149,0.0,0.0,65,0.00,,OVC028,0.79,VWS V12.08,2013-03-18 21:50:00,
2013-03-18 17:55:00,48.1,36.9,29.70,SSE,159,0.0,3.1,65,0.00,,OVC028,0.79,VWS V12.08,2013-03-18 21:55:00,
2013-03-18 18:00:00,48.1,36.9,29.70,South,169,2.2,3.6,65,0.00,,OVC028,0.79,VWS V12.08,2013-03-18 22:00:00,
2013-03-18 18:05:00,48.1,36.9,29.70,South,179,0.0,0.0,65,0.00,,OVC028,0.79,VWS V12.08,2013-03-18 22:05:00,
2013-03-18 19:06:00,47.5,36.3,29.67,East,84,3.1,5.4,65,0.00,,OVC028,0.79,VWS V12.08,2013-03-18 23:06:00,
2013-03-18 19:11:00,47.3,36.2,29.67,North,353,3.1,3.6,65,0.00,,OVC028,0.79,VWS V12.08,2013-03-18 23:11:00,
2013-03-18 19:16:00,47.3,36.2,29.67,SSE,147,4.0,5.4,65,0.00,,OVC028,0.79,VWS V12.08,2013-03-18 23:16:00,
2013-03-18 19:21:00,47.3,35.8,29.67,East,93,3.6,4.0,64,0.00,,OVC028,0.79,VWS V12.08,2013-03-18 23:21:00,
2013-03-18 19:27:00,47.2,35.6,29.67,NNE,22,2.2,5.4,64,0.00,,OVC028,0.79,VWS V12.08,2013-03-18 23:27:00,
2013-03-18 19:32:00,47.0,35.5,29.67,ENE,78,3.1,5.4,64,0.00,,OVC028,0.79,VWS V12.08,2013-03-18 23:32:00,
2013-03-18 19:37:00,47.0,35.5,29.67,SSE,149,3.1,5.8,64,0.00,,OVC028,0.79,VWS V12.08,2013-03-18 23:37:00,
2013-03-18 19:42:00,47.0,35.0,29.67,WNW,295,2.2,3.1,63,0.00,,OVC028,0.79,VWS V12.08,2013-03-18 23:42:00,
2013-03-18 19:47:00,46.8,35.3,29.67,WNW,295,0.0,0.0,64,0.00,,OVC028,0.79,VWS V12.08,2013-03-18 23:47:00,
2013-03-18 19:52:00,46.6,35.1,29.67,NE,43,0.0,2.7,64,0.00,,OVC028,0.79,VWS V12.08,2013-03-18 23:52:00,
2013-03-18 19:57:00,46.6,35.5,29.67,SSE,159,6.3,6.3,65,0.00,,OVC028,0.79,VWS V12.08,2013-03-18 23:57:00,
2013-03-18 20:02:00,46.6,34.7,29.67,SSE,151,0.0,3.6,63,0.00,,OVC028,0.79,VWS V12.08,2013-03-19 00:02:00,
2013-03-18 20:07:00,46.6,34.7,29.67,South,172,0.0,0.0,63,0.00,,OVC028,0.79,VWS V12.08,2013-03-19 00:07:00,
2013-03-18 20:12:00,46.4,34.5,29.67,South,169,3.6,5.8,63,0.00,,OVC028,0.79,VWS V12.08,2013-03-19 00:12:00,
2013-03-18 20:17:00,46.4,34.5,29.67,South,179,5.8,5.8,63,0.00,,OVC028,0.79,VWS V12.08,2013-03-19 00:17:00,
2013-03-18 20:22:00,46.4,34.5,29.67,WNW,288,0.0,0.0,63,0.00,,OVC028,0.79,VWS V12.08,2013-03-19 00:22:00,
2013-03-18 20:27:00,46.4,34.5,29.67,SSE,147,0.0,0.0,63,0.00,,OVC028,0.79,VWS V12.08,2013-03-19 00:27:00,
2013-03-18 20:32:00,46.4,34.5,29.67,SSW,209,0.0,0.0,63,0.00,,OVC028,0.79,VWS V12.08,2013-03-19 00:32:00,
2013-03-18 20:37:00,46.4,34.5,29.67,WNW,289,0.0,0.0,63,0.00,,OVC028,0.79,VWS V12.08,2013-03-19 00:37:00,
2013-03-18 20:42:00,46.4,34.1,29.67,SSE,165,0.0,0.0,62,0.00,,OVC028,0.79,VWS V12.08,2013-03-19 00:42:00,
2013-03-18 20:47:00,46.6,34.7,29.67,SSW,209,0.0,0.0,63,0.00,,OVC028,0.79,VWS V12.08,2013-03-19 00:47:00,
2013-03-18 20:52:00,46.4,34.1,29.67,NW,322,0.0,0.0,62,0.00,,OVC028,0.79,VWS V12.08,2013-03-19 00:52:00,
2013-03-18 20:57:00,46.6,34.3,29.67,SW,232,0.0,0.0,62,0.00,,OVC028,0.79,VWS V12.08,2013-03-19 00:57:00,
2013-03-18 21:02:00,46.6,34.7,29.67,SSE,156,0.0,0.0,63,0.00,,OVC028,0.79,VWS V12.08,2013-03-19 01:02:00,
2013-03-18 21:07:00,46.6,34.7,29.67,South,183,0.0,0.0,63,0.00,,OVC028,0.79,VWS V12.08,2013-03-19 01:07:00,
2013-03-18 21:12:00,46.6,34.7,29.67,South,173,0.0,0.0,63,0.00,,OVC028,0.79,VWS V12.08,2013-03-19 01:12:00,
2013-03-18 21:17:00,46.8,34.9,29.67,South,173,0.0,0.0,63,0.00,,OVC028,0.79,VWS V12.08,2013-03-19 01:17:00,
2013-03-18 21:23:00,46.8,34.9,29.67,West,270,0.0,0.0,63,0.00,,OVC028,0.79,VWS V12.08,2013-03-19 01:23:00,
2013-03-18 21:28:00,46.8,34.9,29.67,SSE,163,0.0,0.0,63,0.00,,OVC028,0.79,VWS V12.08,2013-03-19 01:28:00,
2013-03-18 21:33:00,46.8,34.5,29.67,SSW,196,0.0,0.0,62,0.00,,OVC028,0.79,VWS V12.08,2013-03-19 01:33:00,
2013-03-18 21:38:00,47.0,34.7,29.67,SW,217,0.0,0.0,62,0.00,,OVC028,0.79,VWS V12.08,2013-03-19 01:38:00,
2013-03-18 21:43:00,46.8,34.9,29.67,WSW,239,0.0,0.0,63,0.00,,OVC028,0.79,VWS V12.08,2013-03-19 01:43:00,
2013-03-18 21:48:00,47.0,34.7,29.67,SSW,203,0.0,0.0,62,0.00,,OVC028,0.79,VWS V12.08,2013-03-19 01:48:00,
2013-03-18 21:53:00,47.0,35.0,29.67,West,280,0.0,0.0,63,0.00,,OVC028,0.79,VWS V12.08,2013-03-19 01:53:00,
2013-03-18 21:58:00,46.8,34.9,29.67,SW,221,0.0,0.0,63,0.00,,OVC028,0.79,VWS V12.08,2013-03-19 01:58:00,
2013-03-18 22:03:00,47.0,35.0,29.67,SSW,211,0.0,0.0,63,0.00,,OVC028,0.79,VWS V12.08,2013-03-19 02:03:00,
2013-03-18 22:08:00,47.0,35.0,29.67,SW,218,0.0,0.0,63,0.00,,OVC028,0.79,VWS V12.08,2013-03-19 02:08:00,
2013-03-18 22:13:00,47.0,35.5,29.67,SW,217,0.0,0.0,64,0.00,,OVC028,0.79,VWS V12.08,2013-03-19 02:13:00,
2013-03-18 22:18:00,47.0,35.5,29.67,SE,141,0.0,0.0,64,0.00,,OVC028,0.79,VWS V12.08,2013-03-19 02:18:00,
2013-03-18 22:23:00,47.2,35.6,29.67,SW,229,0.0,0.0,64,0.00,,OVC028,0.79,VWS V12.08,2013-03-19 02:23:00,
2013-03-18 22:28:00,47.3,35.8,29.67,SW,231,0.0,0.0,64,0.00,,OVC028,0.79,VWS V12.08,2013-03-19 02:28:00,
2013-03-18 22:33:00,47.5,36.0,29.67,SSE,168,0.0,0.0,64,0.00,,OVC028,0.79,VWS V12.08,2013-03-19 02:33:00,
2013-03-18 22:38:00,47.7,36.1,29.67,SW,215,0.0,0.0,64,0.00,,OVC028,0.79,VWS V12.08,2013-03-19 02:38:00,
2013-03-18 22:43:00,47.7,36.1,29.67,SSW,206,0.0,0.0,64,0.00,,OVC028,0.79,VWS V12.08,2013-03-19 02:43:00,
2013-03-18 22:48:00,47.9,36.3,29.67,WSW,244,0.0,0.0,64,0.00,,OVC028,0.79,VWS V12.08,2013-03-19 02:48:00,
2013-03-18 22:53:00,48.1,36.5,29.67,SW,216,0.0,0.0,64,0.00,,OVC028,0.79,VWS V12.08,2013-03-19 02:53:00,
2013-03-18 22:58:00,48.1,36.1,29.67,SW,228,0.0,0.0,63,0.00,,OVC028,0.79,VWS V12.08,2013-03-19 02:58:00,
2013-03-18 23:03:00,48.2,36.7,29.67,South,186,0.0,0.0,64,0.00,,OVC028,0.79,VWS V12.08,2013-03-19 03:03:00,
2013-03-18 23:08:00,48.2,36.7,29.67,SW,223,0.0,0.0,64,0.00,,OVC028,0.79,VWS V12.08,2013-03-19 03:08:00,
2013-03-18 23:13:00,48.2,36.7,29.67,SW,214,0.0,0.0,64,0.00,,OVC028,0.79,VWS V12.08,2013-03-19 03:13:00,
2013-03-18 23:18:00,48.4,36.8,29.67,SSE,155,0.0,0.0,64,0.00,,OVC028,0.79,VWS V12.08,2013-03-19 03:18:00,
2013-03-18 23:23:00,48.6,37.4,29.67,SSW,208,0.0,0.0,65,0.00,,OVC028,0.79,VWS V12.08,2013-03-19 03:23:00,
2013-03-18 23:28:00,48.6,37.4,29.67,SSW,197,0.0,0.0,65,0.00,,OVC028,0.79,VWS V12.08,2013-03-19 03:28:00,
2013-03-18 23:33:00,48.6,37.8,29.67,SW,218,0.0,0.0,66,0.00,,OVC028,0.79,VWS V12.08,2013-03-19 03:33:00,
2013-03-18 23:38:00,48.4,38.0,29.67,SW,227,0.0,0.0,67,0.00,,OVC028,0.79,VWS V12.08,2013-03-19 03:38:00,
2013-03-18 23:43:00,48.4,38.7,29.67,SW,231,0.0,0.0,69,0.00,,OVC028,0.79,VWS V12.08,2013-03-19 03:43:00,
2013-03-18 23:48:00,48.2,39.3,29.67,SSW,210,0.0,0.0,71,0.00,,OVC028,0.79,VWS V12.08,2013-03-19 03:48:00,
2013-03-18 23:53:00,48.2,40.3,29.67,SSW,204,0.0,0.0,74,0.00,,OVC028,0.79,VWS V12.08,2013-03-19 03:53:00,
2013-03-18 23:58:00,48.2,40.7,29.67,SW,231,0.0,0.0,75,0.00,,OVC028,0.79,VWS V12.08,2013-03-19 03:58:00,